Location: ??? ???
(33.4974°N, 35.4618°E)
Time: 18:09:02
(UTC+00:00)

Cosmos 1400 Rocket - Pass Details

Date: 29 October 2020
Orbit: 521 x 568 km, 81.2° (Epoch: 29 November)

Event Time Altitude Azimuth Distance (km) Brightness Sun altitude
Rises 15:27:12 0° 192° (SSW) 2,751 6.7 -8.6°
Reaches altitude 10° 15:29:23 10° 195° (SSW) 1,856 5.9 -9.1°
Maximum altitude 15:33:28 69° 278° (W) 607 3.2 -9.9°
Drops below altitude 10° 15:37:33 10° 3° (N) 1,853 5.4 -10.8°
Sets 15:39:44 0° 5° (N) 2,746 6.2 -11.2°
